Back to catalog

STARLINK-36940

AliveCommunicationsSSO
NORAD 68027·PAYLOAD·🇺🇸 United States

Launched Mar 1, 2026 from Vandenberg Space Force Base

Loading…

Next Passes (next 24 hours)

TLE

FreshSource: CelesTrak SupGP

Epoch: Sep 14, 2026, 15:14 UTC

1 68027C 26040N   26257.63520833 -.00002984  00000+0 -92632-4 0  2574
2 68027  97.2852 205.1268 0001931  88.9247 263.9652 15.33440284    12

Track STARLINK-36940 in real time with AllMySat

Download on the App Store